Vorticity
nan nan nan nan nan nan nan nan nan nan nan nan nan nan nan nan nan nan nan nan nan nan nan nan nan nan nan nan nan nan nan nan nan nan nan nan nan nan nan nan nan nan nan nan nan
nan 7 7 7 7 7 7 7 7 7 7 7 7 7 7 13 20 8 10 10 10 7 2 5 5 6 9 9 7 7 9 9 8 6 5 8 9 9 8 -1 1 23 20 7 nan
nan 8 8 8 7 7 7 7 7 6 6 7 8 8 9 13 14 14 20 16 4 -1 1 6 7 9 9 14 12 6 6 11 9 4 9 12 6 10 8 6 11 6 1 8 nan
nan 8 8 8 8 7 7 7 7 7 7 8 8 9 13 13 3 12 17 16 6 3 4 6 8 12 10 10 9 9 8 7 7 7 8 12 8 7 6 10 12 8 0 3 nan
nan 8 7 7 7 8 7 7 7 7 7 8 9 11 15 11 10 11 7 6 3 7 7 3 5 7 6 10 11 6 5 7 11 6 10 5 5 7 9 14 6 2 -2 3 nan
nan 8 7 7 7 8 8 8 7 7 8 9 10 12 11 4 18 10 5 3 5 7 5 4 6 7 8 4 6 7 5 13 14 3 7 11 8 7 6 7 4 2 7 20 nan
nan 8 8 7 7 9 9 8 7 9 10 13 13 9 9 8 4 4 4 3 9 5 4 6 5 7 7 12 7 2 6 13 4 7 10 8 4 11 11 8 2 3 21 19 nan
nan 8 8 8 8 8 8 6 8 11 13 17 12 9 7 16 7 4 8 7 6 4 5 3 10 9 8 6 8 11 10 6 8 9 9 4 7 9 6 7 6 11 24 10 nan
nan 6 7 8 9 8 7 7 14 16 16 11 5 7 7 11 18 11 7 7 8 6 5 8 8 6 8 12 9 15 12 5 9 9 9 2 10 8 5 4 7 15 15 8 nan
nan 6 7 7 9 10 14 22 16 16 16 5 3 7 14 9 11 10 8 11 10 8 7 9 6 6 5 8 6 8 6 9 11 11 8 6 14 10 9 5 4 8 11 11 nan
nan 7 9 10 11 11 17 20 8 11 11 8 0 -1 5 14 9 11 10 10 7 7 10 8 6 6 5 1 7 5 5 9 5 12 10 4 14 12 9 15 16 8 7 13 nan
nan 7 10 12 12 13 12 7 2 2 19 11 4 6 4 17 7 9 9 6 7 7 3 8 7 5 4 7 9 6 10 12 7 11 8 3 9 17 6 7 2 8 17 8 nan
nan 8 11 11 19 20 13 2 -2 6 16 19 22 8 13 14 5 6 6 5 7 6 7 8 5 8 10 9 8 9 14 8 6 12 5 7 6 8 6 5 1 4 12 17 nan
nan 11 12 17 18 13 12 14 9 8 8 22 15 8 13 6 8 14 11 5 4 7 12 6 8 8 10 8 8 7 10 11 16 12 8 10 12 12 14 9 11 5 4 16 nan
nan 12 18 15 10 6 7 17 15 6 9 21 10 8 14 4 6 21 11 3 6 6 8 8 11 14 8 5 10 6 4 13 17 4 10 14 15 8 10 14 16 7 11 16 nan
nan 15 21 16 10 3 1 11 13 11 12 9 8 15 9 7 4 14 8 8 10 8 6 9 6 10 11 12 9 9 4 8 6 6 10 15 4 9 13 4 6 12 13 13 nan
nan 18 12 8 7 11 14 11 9 3 12 14 10 12 9 6 13 7 6 5 6 9 10 11 12 8 7 8 12 13 4 6 4 11 10 8 9 11 6 11 10 6 4 8 nan
nan 27 18 4 0 10 15 10 8 4 13 14 15 7 6 7 11 4 6 7 7 5 7 9 17 18 12 10 9 6 10 5 6 5 13 9 9 10 17 20 11 13 18 15 nan
nan 22 10 18 10 7 10 8 2 6 11 8 16 17 9 9 9 12 7 6 10 8 3 3 5 20 18 8 6 5 9 12 7 9 13 4 4 11 19 12 10 17 23 21 nan
nan 11 17 18 10 6 8 6 2 9 9 11 10 6 13 19 15 6 9 8 10 14 6 -1 12 12 12 10 9 11 -1 5 13 14 8 11 15 15 -2 -5 13 11 10 12 nan
nan 11 15 9 7 7 8 4 7 13 6 3 7 7 9 17 13 6 3 12 14 15 14 13 7 3 13 14 7 3 11 9 14 8 7 8 11 18 11 10 7 3 12 6 nan
nan 14 12 5 5 9 7 6 10 2 8 14 8 11 8 7 11 21 14 3 -0 8 14 16 13 13 5 6 18 11 7 11 7 10 15 10 11 16 9 9 2 18 11 10 nan
nan 14 12 6 4 5 6 9 13 12 5 8 10 10 11 14 9 9 17 17 10 5 9 10 6 8 10 12 12 12 9 11 12 15 10 11 14 11 10 3 -0 18 7 21 nan
nan 13 12 9 7 4 8 10 5 13 12 8 8 5 8 10 9 12 9 17 19 10 5 10 11 9 6 7 5 6 3 9 12 8 7 8 10 15 8 -1 11 6 13 10 nan
nan 8 8 5 5 11 10 8 9 12 14 15 11 1 7 18 13 5 9 11 17 21 10 4 5 4 5 6 10 8 3 6 8 11 10 2 2 12 18 23 21 1 16 3 nan
nan 7 9 8 7 11 15 8 4 11 15 7 9 11 14 16 12 5 6 12 5 -1 12 13 11 11 10 11 10 10 11 5 7 5 14 10 9 7 17 20 7 14 12 5 nan
nan nan nan nan nan nan nan nan nan nan nan nan nan nan nan nan nan nan nan nan nan nan nan nan nan nan nan nan nan nan nan nan nan nan nan nan nan nan nan nan nan nan nan nan nan
CAPE
4 1 0 0 1 1 0 1 2 2 1 1 0 1 0 0 0 0 0 0 0 476 1 0 0 0 0 0 5 0 200 97 1 11 417 496 429 311 9 0 27 105 158 214 167
0 0 0 0 0 0 2 2 2 2 1 1 0 0 0 0 0 0 0 77 538 1028 0 0 0 0 0 22 2 84 166 284 135 29 392 379 514 255 263 241 154 109 293 325 330
0 1 0 0 0 0 0 0 1 1 2 1 1 0 0 0 0 0 254 362 659 379 0 0 0 0 0 0 8 46 80 399 516 610 388 424 555 366 135 103 71 215 196 162 282
0 0 0 0 0 0 0 2 0 2 1 1 1 0 0 0 0 0 353 590 540 0 0 0 0 0 0 1 50 26 112 86 542 623 457 564 275 573 128 185 75 150 145 48 67
0 0 0 0 0 0 0 0 1 1 1 1 1 0 0 0 0 0 27 272 0 0 0 0 0 0 0 0 44 9 15 29 441 597 510 697 495 680 391 22 2 92 144 140 17
1 1 3 0 0 0 1 2 1 2 2 1 1 0 0 0 0 0 0 0 0 0 0 0 0 0 0 0 4 9 0 0 258 561 384 569 745 432 532 138 0 9 54 75 44
1 1 0 1 2 1 2 2 1 1 1 2 0 0 0 0 0 0 0 0 0 0 0 0 0 0 0 0 0 32 29 115 301 269 517 564 689 427 462 293 218 275 122 130 65
1 1 0 1 3 4 0 0 1 0 1 0 0 0 0 0 0 0 0 0 0 0 0 0 0 0 0 0 0 0 0 55 338 135 679 391 300 557 390 276 284 420 92 372 182
2 4 0 0 4 1 0 0 0 0 0 0 0 0 0 0 0 0 0 0 0 0 0 0 0 0 0 0 0 0 10 73 279 361 701 523 613 661 358 89 228 53 308 426 380
0 3 0 0 0 0 0 0 0 0 0 0 0 0 0 0 0 0 0 0 0 0 0 0 0 0 0 0 0 8 32 92 179 341 646 691 656 733 697 739 535 114 104 457 408
0 0 0 1 0 0 0 0 0 0 0 0 0 0 0 0 0 0 0 0 0 0 0 0 0 0 0 0 0 2 0 0 330 317 606 584 616 394 153 41 329 376 139 141 374
2 0 0 0 2 1 1 0 0 0 0 0 0 0 0 0 0 0 0 0 0 0 0 0 0 0 0 0 0 0 0 62 247 59 596 359 432 1014 785 346 43 156 269 203 67
2 0 0 1 0 1 0 0 0 0 0 0 0 0 0 0 0 0 0 0 0 0 0 0 0 0 0 0 0 0 0 21 138 336 426 128 203 300 675 382 558 287 203 346 217
1 1 1 0 0 0 0 0 0 0 0 0 0 0 0 0 0 0 0 0 0 0 0 0 0 0 0 0 0 0 3 73 78 93 93 7 16 396 252 343 400 37 196 209 526
0 1 1 4 0 0 0 0 0 0 0 0 0 0 0 0 0 0 0 0 0 0 0 0 0 0 0 0 0 0 0 0 136 20 0 185 171 527 254 50 39 117 59 104 523
0 1 1 0 0 0 0 0 0 0 0 0 0 0 0 0 0 0 0 0 0 0 0 0 0 0 0 0 0 0 0 2 35 28 0 16 93 64 144 1 89 17 12 170 297
0 0 2 0 0 0 0 0 0 0 0 0 0 0 0 0 0 0 0 0 0 0 0 0 0 0 0 0 0 0 0 1 65 72 20 14 0 34 97 28 6 0 13 164 311
0 0 0 0 0 0 0 0 0 0 0 0 0 0 0 0 0 0 0 0 0 0 0 0 0 0 0 0 0 0 0 0 4 28 4 3 3 77 43 26 31 0 2 35 315
0 0 0 0 0 0 0 0 0 0 0 0 0 0 0 0 0 0 0 0 0 0 0 0 0 0 0 0 0 0 0 0 0 0 42 53 243 71 69 43 261 397 545 606 521
0 0 0 0 0 0 0 0 0 0 0 0 0 0 1 0 0 0 0 0 0 0 0 0 0 0 0 0 0 0 0 0 0 0 30 63 139 115 102 106 185 601 752 741 526
0 0 0 0 0 0 0 0 0 0 0 0 0 0 0 0 0 0 1 21 0 0 0 0 0 0 0 0 0 0 0 0 0 0 0 4 149 366 86 64 178 210 723 731 772
0 0 0 0 0 0 0 0 0 0 0 0 0 0 0 0 0 0 0 0 0 0 0 0 0 0 0 0 0 0 0 0 0 6 9 0 79 187 0 16 76 69 725 795 797
0 0 0 0 0 0 0 0 0 0 0 0 0 0 0 0 0 0 0 0 0 0 0 0 0 0 1 0 24 52 16 4 0 0 38 12 52 38 15 71 158 233 174 735 744
0 0 0 0 0 0 0 0 0 0 0 0 0 0 0 0 0 0 0 0 0 0 104 13 0 0 1 13 3 8 1 1 1 0 14 2 94 63 0 26 113 771 604 986 559
0 0 0 0 0 0 0 0 0 0 0 0 0 0 0 0 0 6 1 38 79 186 0 0 0 0 0 4 0 10 2 0 4 0 5 14 0 4 0 22 88 121 171 97 534
0 0 0 0 0 0 0 0 0 0 0 0 0 0 0 0 0 0 0 0 53 30 28 0 0 0 0 12 16 0 9 0 2 42 6 20 5 0 37 66 4 25 0 31 246
0 0 0 0 0 0 0 0 0 0 0 0 0 0 0 0 0 0 0 0 0 0 0 23 69 196 73 162 88 0 3 34 115 26 0 0 0 0 8 8 160 201 158 5 90